| time (UTC) | temp F | wind direction | speed MPH | gust MPH | rain 1hr in | rain 24hr in | rain mn in | humidity % | barometer mb |
| 20260509111504 | 47 | 339 | 0.0 | 0.0 | 0.00 | 0.00 | 0.00 | 80 | 1020.8 |
| 20260509110005 | 47 | 339 | 0.0 | 0.0 | 0.00 | 0.00 | 0.00 | 80 | 1020.6 |
| 20260509105504 | 47 | 339 | 0.0 | 0.0 | 0.00 | 0.00 | 0.00 | 80 | 1020.7 |
| 20260509105004 | 47 | 339 | 0.0 | 0.0 | 0.00 | 0.00 | 0.00 | 79 | 1020.8 |
| 20260509104504 | 47 | 339 | 0.0 | 0.0 | 0.00 | 0.00 | 0.00 | 79 | 1020.7 |
| 20260509104005 | 47 | 339 | 0.0 | 0.0 | 0.00 | 0.00 | 0.00 | 79 | 1020.6 |
| 20260509103505 | 47 | 339 | 0.0 | 0.0 | 0.00 | 0.00 | 0.00 | 78 | 1020.6 |
| 20260509103004 | 48 | 339 | 0.0 | 0.0 | 0.00 | 0.00 | 0.00 | 77 | 1020.6 |
| 20260509102504 | 48 | 339 | 0.0 | 0.0 | 0.00 | 0.00 | 0.00 | 76 | 1020.6 |
| 20260509102005 | 48 | 339 | 0.0 | 0.0 | 0.00 | 0.00 | 0.00 | 76 | 1020.6 |
| 20260509101505 | 48 | 339 | 0.0 | 0.0 | 0.00 | 0.00 | 0.00 | 77 | 1020.6 |
| 20260509101005 | 48 | 339 | 0.0 | 0.0 | 0.00 | 0.00 | 0.00 | 77 | 1020.7 |
| 20260509100505 | 48 | 339 | 0.0 | 0.0 | 0.00 | 0.00 | 0.00 | 77 | 1020.6 |
| 20260509100005 | 48 | 339 | 0.0 | 0.0 | 0.00 | 0.00 | 0.00 | 77 | 1020.5 |
| 20260509095504 | 49 | 339 | 0.0 | 0.0 | 0.00 | 0.00 | 0.00 | 76 | 1020.5 |
| 20260509095005 | 49 | 339 | 0.0 | 0.0 | 0.00 | 0.00 | 0.00 | 76 | 1020.5 |
| 20260509094504 | 49 | 339 | 0.0 | 0.0 | 0.00 | 0.00 | 0.00 | 76 | 1020.5 |
| 20260509094005 | 49 | 339 | 0.0 | 0.0 | 0.00 | 0.00 | 0.00 | 76 | 1020.4 |
| 20260509093505 | 49 | 339 | 0.0 | 0.0 | 0.00 | 0.00 | 0.00 | 76 | 1020.4 |
| 20260509093004 | 49 | 339 | 0.0 | 0.0 | 0.00 | 0.00 | 0.00 | 74 | 1020.3 |
| 20260509092505 | 49 | 339 | 0.0 | 0.0 | 0.00 | 0.00 | 0.00 | 74 | 1020.3 |
| 20260509092004 | 49 | 339 | 0.0 | 0.0 | 0.00 | 0.00 | 0.00 | 74 | 1020.3 |
| 20260509091005 | 50 | 339 | 0.0 | 0.0 | 0.00 | 0.00 | 0.00 | 71 | 1020.3 |
| 20260509090505 | 50 | 339 | 0.0 | 0.0 | 0.00 | 0.00 | 0.00 | 71 | 1020.3 |
| 20260509090005 | 50 | 339 | 0.0 | 0.0 | 0.00 | 0.00 | 0.00 | 72 | 1020.2 |
| 20260509085504 | 50 | 339 | 0.0 | 0.0 | 0.00 | 0.00 | 0.00 | 72 | 1020.3 |
| 20260509085004 | 50 | 339 | 0.0 | 0.0 | 0.00 | 0.00 | 0.00 | 71 | 1020.3 |
| 20260509084505 | 50 | 339 | 0.0 | 0.0 | 0.00 | 0.00 | 0.00 | 71 | 1020.2 |
| 20260509084005 | 50 | 339 | 0.0 | 0.0 | 0.00 | 0.00 | 0.00 | 70 | 1020.0 |
| 20260509083504 | 50 | 339 | 0.0 | 0.0 | 0.00 | 0.00 | 0.00 | 70 | 1020.2 |
| 20260509083005 | 50 | 339 | 0.0 | 0.0 | 0.00 | 0.00 | 0.00 | 70 | 1020.1 |
| 20260509082505 | 51 | 339 | 0.0 | 0.0 | 0.00 | 0.00 | 0.00 | 69 | 1020.2 |
| 20260509081505 | 51 | 339 | 0.0 | 0.0 | 0.00 | 0.00 | 0.00 | 68 | 1020.2 |
| 20260509080504 | 51 | 339 | 0.0 | 0.0 | 0.00 | 0.00 | 0.00 | 68 | 1020.2 |
| 20260509075004 | 52 | 339 | 0.0 | 0.0 | 0.00 | 0.00 | 0.00 | 66 | 1020.0 |
| 20260509074505 | 52 | 339 | 0.0 | 0.0 | 0.00 | 0.00 | 0.00 | 65 | 1020.0 |
| 20260509073505 | 53 | 339 | 0.0 | 0.0 | 0.00 | 0.00 | 0.00 | 64 | 1020.0 |
| 20260509073005 | 53 | 339 | 0.0 | 0.0 | 0.00 | 0.00 | 0.00 | 62 | 1019.9 |
| 20260509072504 | 53 | 339 | 0.0 | 0.0 | 0.00 | 0.00 | 0.00 | 61 | 1019.9 |
| 20260509071504 | 53 | 339 | 0.0 | 0.0 | 0.00 | 0.00 | 0.00 | 62 | 1020.0 |
| 20260509071005 | 53 | 339 | 0.0 | 0.0 | 0.00 | 0.00 | 0.00 | 62 | 1019.9 |
| 20260509070505 | 53 | 339 | 0.0 | 0.0 | 0.00 | 0.00 | 0.00 | 61 | 1019.9 |
| 20260509065505 | 54 | 339 | 0.0 | 0.0 | 0.00 | 0.00 | 0.00 | 60 | 1019.9 |
| 20260509064504 | 54 | 339 | 0.0 | 1.0 | 0.00 | 0.00 | 0.00 | 58 | 1019.7 |
| 20260509064005 | 54 | 75 | 0.0 | 0.0 | 0.00 | 0.00 | 0.00 | 56 | 1019.8 |
| 20260509063505 | 55 | 75 | 0.0 | 0.0 | 0.00 | 0.00 | 0.00 | 55 | 1019.7 |
| 20260509063004 | 55 | 75 | 0.0 | 0.0 | 0.00 | 0.00 | 0.00 | 55 | 1019.6 |
| 20260509062505 | 54 | 75 | 0.0 | 0.0 | 0.00 | 0.00 | 0.00 | 56 | 1019.6 |
| 20260509062004 | 54 | 75 | 0.0 | 0.0 | 0.00 | 0.00 | 0.00 | 54 | 1019.4 |
| 20260509061505 | 55 | 75 | 0.0 | 0.0 | 0.00 | 0.00 | 0.00 | 55 | 1019.3 |
| 20260509061004 | 55 | 75 | 0.0 | 0.0 | 0.00 | 0.00 | 0.00 | 54 | 1019.5 |
| 20260509060504 | 55 | 75 | 0.0 | 0.0 | 0.00 | 0.00 | 0.00 | 55 | 1019.4 |
| 20260509055504 | 55 | 75 | 0.0 | 0.0 | 0.00 | 0.00 | 0.00 | 54 | 1019.5 |
| 20260509055005 | 56 | 75 | 0.0 | 0.0 | 0.00 | 0.00 | 0.00 | 53 | 1019.6 |
| 20260509054505 | 56 | 75 | 0.0 | 0.0 | 0.00 | 0.00 | 0.00 | 51 | 1019.6 |
| 20260509054004 | 56 | 75 | 0.0 | 0.0 | 0.00 | 0.00 | 0.00 | 50 | 1019.6 |
| 20260509053005 | 57 | 75 | 0.0 | 0.0 | 0.00 | 0.00 | 0.00 | 49 | 1019.8 |
| 20260509052505 | 57 | 75 | 0.0 | 0.0 | 0.00 | 0.00 | 0.00 | 50 | 1019.7 |
| 20260509051005 | 58 | 75 | 0.0 | 0.0 | 0.00 | 0.00 | 0.00 | 50 | 1019.6 |
| 20260509050505 | 59 | 75 | 0.0 | 0.0 | 0.00 | 0.00 | 0.00 | 49 | 1019.7 |
| 20260509050005 | 59 | 75 | 0.0 | 0.0 | 0.00 | 0.00 | 0.00 | 48 | 1019.6 |
| 20260509045505 | 60 | 75 | 0.0 | 0.0 | 0.00 | 0.00 | 0.00 | 46 | 1019.5 |
| 20260509045005 | 61 | 75 | 0.0 | 0.0 | 0.00 | 0.00 | 0.00 | 44 | 1019.4 |
| 20260509044005 | 63 | 75 | 0.0 | 1.0 | 0.00 | 0.00 | 0.00 | 40 | 1019.3 |
| 20260509043505 | 63 | 169 | 3.0 | 6.0 | 0.00 | 0.00 | 0.00 | 39 | 1019.2 |
| 20260509043005 | 64 | 163 | 2.0 | 3.0 | 0.00 | 0.00 | 0.00 | 38 | 1019.2 |
| 20260509042505 | 64 | 131 | 1.0 | 6.0 | 0.00 | 0.00 | 0.00 | 37 | 1019.2 |
| 20260509042004 | 64 | 168 | 6.0 | 8.0 | 0.00 | 0.00 | 0.00 | 37 | 1019.1 |
| 20260509041505 | 63 | 175 | 5.0 | 7.0 | 0.00 | 0.00 | 0.00 | 38 | 1019.1 |
| 20260509041005 | 63 | 160 | 1.0 | 5.0 | 0.00 | 0.00 | 0.00 | 38 | 1019.1 |
| 20260509040506 | 64 | 117 | 2.0 | 3.0 | 0.00 | 0.00 | 0.00 | 38 | 1019.1 |
| 20260509040005 | 64 | 151 | 2.0 | 5.0 | 0.00 | 0.00 | 0.00 | 38 | 1019.0 |
| 20260509035505 | 64 | 157 | 3.0 | 6.0 | 0.00 | 0.00 | 0.00 | 38 | 1018.8 |
| 20260509034505 | 64 | 136 | 3.0 | 6.0 | 0.00 | 0.00 | 0.00 | 37 | 1018.8 |
| 20260509034005 | 64 | 159 | 4.0 | 6.0 | 0.00 | 0.00 | 0.00 | 37 | 1018.7 |
| 20260509033505 | 64 | 166 | 3.0 | 6.0 | 0.00 | 0.00 | 0.00 | 38 | 1018.7 |
| 20260509033004 | 65 | 139 | 2.0 | 3.0 | 0.00 | 0.00 | 0.00 | 37 | 1018.6 |
| 20260509032504 | 65 | 142 | 2.0 | 2.0 | 0.00 | 0.00 | 0.00 | 37 | 1018.6 |
| 20260509032005 | 66 | 130 | 1.0 | 2.0 | 0.00 | 0.00 | 0.00 | 36 | 1018.6 |
| 20260509031004 | 66 | 162 | 3.0 | 3.0 | 0.00 | 0.00 | 0.00 | 36 | 1018.4 |
| 20260509030004 | 67 | 119 | 1.0 | 2.0 | 0.00 | 0.00 | 0.00 | 36 | 1018.4 |
| 20260509024005 | 68 | 208 | 0.0 | 0.0 | 0.00 | 0.00 | 0.00 | 34 | 1018.2 |
| 20260509023505 | 69 | 218 | 2.0 | 3.0 | 0.00 | 0.00 | 0.00 | 33 | 1018.1 |
| 20260509023005 | 69 | 223 | 1.0 | 2.0 | 0.00 | 0.00 | 0.00 | 30 | 1018.1 |
| 20260509021504 | 71 | 333 | 0.0 | 1.0 | 0.00 | 0.00 | 0.00 | 30 | 1018.1 |
| 20260509020005 | 72 | 312 | 3.0 | 7.0 | 0.00 | 0.00 | 0.00 | 27 | 1018.0 |
| 20260509015005 | 73 | 316 | 3.0 | 7.0 | 0.00 | 0.00 | 0.00 | 28 | 1017.9 |
| 20260509014004 | 73 | 306 | 3.0 | 9.0 | 0.00 | 0.00 | 0.00 | 28 | 1017.9 |
| 20260509013005 | 74 | 300 | 6.0 | 10.0 | 0.00 | 0.00 | 0.00 | 25 | 1017.9 |
| 20260509012505 | 74 | 288 | 4.0 | 9.0 | 0.00 | 0.00 | 0.00 | 24 | 1017.9 |
| 20260509012005 | 74 | 301 | 3.0 | 7.0 | 0.00 | 0.00 | 0.00 | 25 | 1017.9 |
| 20260509010504 | 75 | 294 | 2.0 | 9.0 | 0.00 | 0.00 | 0.00 | 23 | 1017.9 |
| 20260509010004 | 76 | 299 | 6.0 | 10.0 | 0.00 | 0.00 | 0.00 | 20 | 1017.9 |
| 20260509005504 | 76 | 305 | 5.0 | 10.0 | 0.00 | 0.00 | 0.00 | 22 | 1017.9 |
| 20260509005004 | 76 | 298 | 6.0 | 10.0 | 0.00 | 0.00 | 0.00 | 21 | 1018.0 |
| 20260509004505 | 76 | 311 | 5.0 | 9.0 | 0.00 | 0.00 | 0.00 | 20 | 1018.0 |
| 20260509004005 | 76 | 295 | 5.0 | 12.0 | 0.00 | 0.00 | 0.00 | 20 | 1018.0 |
| 20260509003505 | 76 | 292 | 6.0 | 9.0 | 0.00 | 0.00 | 0.00 | 20 | 1018.0 |
| 20260509002505 | 76 | 290 | 6.0 | 12.0 | 0.00 | 0.00 | 0.00 | 19 | 1018.0 |
| 20260509001504 | 76 | 317 | 5.0 | 10.0 | 0.00 | 0.00 | 0.00 | 19 | 1018.0 |
| 20260509001005 | 77 | 286 | 6.0 | 12.0 | 0.00 | 0.00 | 0.00 | 19 | 1018.0 |
| 20260509000504 | 77 | 298 | 5.0 | 12.0 | 0.00 | 0.00 | 0.00 | 18 | 1018.0 |
| 20260509000004 | 77 | 304 | 6.0 | 12.0 | 0.00 | 0.00 | 0.00 | 17 | 1018.0 |
| 20260508235504 | 77 | 285 | 6.0 | 12.0 | 0.00 | 0.00 | 0.00 | 16 | 1018.0 |
| 20260508235005 | 77 | 296 | 5.0 | 9.0 | 0.00 | 0.00 | 0.00 | 18 | 1018.0 |
| 20260508234505 | 77 | 294 | 5.0 | 10.0 | 0.00 | 0.00 | 0.00 | 18 | 1018.1 |
| 20260508234005 | 77 | 294 | 7.0 | 12.0 | 0.00 | 0.00 | 0.00 | 17 | 1018.1 |
| 20260508233004 | 77 | 299 | 7.0 | 13.0 | 0.00 | 0.00 | 0.00 | 16 | 1018.2 |
| 20260508232505 | 77 | 287 | 3.0 | 9.0 | 0.00 | 0.00 | 0.00 | 17 | 1018.2 |
| 20260508231004 | 78 | 291 | 7.0 | 13.0 | 0.00 | 0.00 | 0.00 | 15 | 1018.4 |
| 20260508230504 | 78 | 288 | 6.0 | 13.0 | 0.00 | 0.00 | 0.00 | 15 | 1018.4 |
| 20260508230005 | 78 | 288 | 7.0 | 12.0 | 0.00 | 0.00 | 0.00 | 15 | 1018.5 |
| 20260508225005 | 78 | 303 | 6.0 | 10.0 | 0.00 | 0.00 | 0.00 | 15 | 1018.6 |
| 20260508224504 | 78 | 293 | 6.0 | 10.0 | 0.00 | 0.00 | 0.00 | 14 | 1018.7 |
| 20260508224004 | 78 | 313 | 5.0 | 12.0 | 0.00 | 0.00 | 0.00 | 15 | 1018.7 |
| 20260508223505 | 78 | 285 | 4.0 | 12.0 | 0.00 | 0.00 | 0.00 | 15 | 1018.8 |
| 20260508222504 | 78 | 285 | 5.0 | 12.0 | 0.00 | 0.00 | 0.00 | 15 | 1018.8 |
| 20260508221505 | 78 | 283 | 4.0 | 9.0 | 0.00 | 0.00 | 0.00 | 14 | 1019.1 |
| 20260508220505 | 78 | 304 | 3.0 | 9.0 | 0.00 | 0.00 | 0.00 | 14 | 1019.1 |
| 20260508220005 | 78 | 316 | 3.0 | 10.0 | 0.00 | 0.00 | 0.00 | 14 | 1019.1 |
| 20260508215505 | 78 | 288 | 7.0 | 13.0 | 0.00 | 0.00 | 0.00 | 13 | 1019.1 |
| 20260508215004 | 78 | 299 | 6.0 | 12.0 | 0.00 | 0.00 | 0.00 | 12 | 1019.3 |
| 20260508214005 | 79 | 289 | 3.0 | 10.0 | 0.00 | 0.00 | 0.00 | 13 | 1019.3 |
| 20260508213505 | 79 | 297 | 5.0 | 9.0 | 0.00 | 0.00 | 0.00 | 12 | 1019.4 |
| 20260508213004 | 79 | 300 | 4.0 | 9.0 | 0.00 | 0.00 | 0.00 | 13 | 1019.4 |
| 20260508211504 | 79 | 306 | 3.0 | 8.0 | 0.00 | 0.00 | 0.00 | 13 | 1019.6 |
| 20260508211005 | 79 | 270 | 5.0 | 9.0 | 0.00 | 0.00 | 0.00 | 12 | 1019.6 |
| 20260508210505 | 79 | 186 | 5.0 | 9.0 | 0.00 | 0.00 | 0.00 | 14 | 1019.6 |
| 20260508210004 | 79 | 246 | 3.0 | 6.0 | 0.00 | 0.00 | 0.00 | 15 | 1019.6 |
| 20260508205505 | 78 | 273 | 3.0 | 8.0 | 0.00 | 0.00 | 0.00 | 14 | 1019.6 |
| 20260508205004 | 78 | 263 | 4.0 | 7.0 | 0.00 | 0.00 | 0.00 | 14 | 1019.6 |
| 20260508204504 | 78 | 301 | 3.0 | 9.0 | 0.00 | 0.00 | 0.00 | 16 | 1019.7 |
| 20260508204005 | 78 | 263 | 4.0 | 8.0 | 0.00 | 0.00 | 0.00 | 14 | 1019.8 |
| 20260508203504 | 77 | 284 | 4.0 | 9.0 | 0.00 | 0.00 | 0.00 | 15 | 1019.7 |
| 20260508203005 | 77 | 289 | 5.0 | 9.0 | 0.00 | 0.00 | 0.00 | 15 | 1019.7 |
| 20260508202505 | 77 | 292 | 4.0 | 9.0 | 0.00 | 0.00 | 0.00 | 15 | 1019.7 |
| 20260508202005 | 77 | 295 | 2.0 | 8.0 | 0.00 | 0.00 | 0.00 | 16 | 1019.8 |
| 20260508201505 | 77 | 254 | 4.0 | 8.0 | 0.00 | 0.00 | 0.00 | 16 | 1019.9 |
| 20260508201005 | 77 | 256 | 3.0 | 7.0 | 0.00 | 0.00 | 0.00 | 16 | 1019.9 |
| 20260508200504 | 77 | 351 | 2.0 | 6.0 | 0.00 | 0.00 | 0.00 | 17 | 1019.9 |
| 20260508200005 | 76 | 311 | 3.0 | 7.0 | 0.00 | 0.00 | 0.00 | 16 | 1019.9 |
| 20260508195504 | 76 | 304 | 1.0 | 9.0 | 0.00 | 0.00 | 0.00 | 17 | 1019.9 |
| 20260508194504 | 76 | 303 | 3.0 | 7.0 | 0.00 | 0.00 | 0.00 | 18 | 1019.9 |
| 20260508194005 | 76 | 269 | 1.0 | 7.0 | 0.00 | 0.00 | 0.00 | 17 | 1020.0 |
| 20260508193505 | 76 | 301 | 1.0 | 6.0 | 0.00 | 0.00 | 0.00 | 17 | 1020.0 |
| 20260508193004 | 76 | 245 | 1.0 | 6.0 | 0.00 | 0.00 | 0.00 | 16 | 1020.0 |
| 20260508192505 | 76 | 277 | 3.0 | 7.0 | 0.00 | 0.00 | 0.00 | 17 | 1020.0 |
| 20260508192005 | 75 | 102 | 3.0 | 6.0 | 0.00 | 0.00 | 0.00 | 18 | 1020.0 |
| 20260508191505 | 74 | 192 | 2.0 | 7.0 | 0.00 | 0.00 | 0.00 | 17 | 1020.1 |
| 20260508191005 | 74 | 274 | 5.0 | 7.0 | 0.00 | 0.00 | 0.00 | 17 | 1020.2 |
| 20260508190504 | 74 | 325 | 2.0 | 5.0 | 0.00 | 0.00 | 0.00 | 17 | 1020.2 |
| 20260508190004 | 74 | 287 | 1.0 | 5.0 | 0.00 | 0.00 | 0.00 | 16 | 1020.2 |
| 20260508185504 | 74 | 301 | 0.0 | 2.0 | 0.00 | 0.00 | 0.00 | 16 | 1020.3 |
| 20260508185004 | 73 | 320 | 1.0 | 5.0 | 0.00 | 0.00 | 0.00 | 16 | 1020.3 |
| 20260508184504 | 73 | 357 | 1.0 | 6.0 | 0.00 | 0.00 | 0.00 | 17 | 1020.3 |
| 20260508184005 | 74 | 342 | 2.0 | 6.0 | 0.00 | 0.00 | 0.00 | 17 | 1020.4 |
| 20260508183505 | 74 | 242 | 1.0 | 5.0 | 0.00 | 0.00 | 0.00 | 17 | 1020.5 |
| 20260508183004 | 74 | 180 | 2.0 | 5.0 | 0.00 | 0.00 | 0.00 | 16 | 1020.5 |
| 20260508182504 | 73 | 158 | 0.0 | 6.0 | 0.00 | 0.00 | 0.00 | 17 | 1020.5 |
| 20260508181505 | 73 | 152 | 1.0 | 7.0 | 0.00 | 0.00 | 0.00 | 16 | 1020.5 |
| 20260508181005 | 72 | 222 | 3.0 | 7.0 | 0.00 | 0.00 | 0.00 | 18 | 1020.6 |
| 20260508180506 | 71 | 172 | 2.0 | 6.0 | 0.00 | 0.00 | 0.00 | 18 | 1020.6 |
| 20260508180004 | 70 | 309 | 2.0 | 5.0 | 0.00 | 0.00 | 0.00 | 17 | 1020.6 |
| 20260508175505 | 71 | 333 | 2.0 | 6.0 | 0.00 | 0.00 | 0.00 | 17 | 1020.8 |
| 20260508175005 | 70 | 112 | 0.0 | 2.0 | 0.00 | 0.00 | 0.00 | 21 | 1020.8 |
| 20260508174505 | 70 | 275 | 0.0 | 0.0 | 0.00 | 0.00 | 0.00 | 20 | 1020.8 |
| 20260508174004 | 69 | 275 | 0.0 | 0.0 | 0.00 | 0.00 | 0.00 | 22 | 1020.8 |
| 20260508173505 | 69 | 288 | 1.0 | 5.0 | 0.00 | 0.00 | 0.00 | 20 | 1020.9 |
| 20260508172505 | 69 | 147 | 1.0 | 5.0 | 0.00 | 0.00 | 0.00 | 20 | 1020.9 |
| 20260508172005 | 69 | 176 | 0.0 | 5.0 | 0.00 | 0.00 | 0.00 | 21 | 1020.9 |
| 20260508171504 | 68 | 185 | 1.0 | 6.0 | 0.00 | 0.00 | 0.00 | 23 | 1020.9 |
| 20260508171005 | 68 | 171 | 0.0 | 0.0 | 0.00 | 0.00 | 0.00 | 24 | 1020.9 |
| 20260508170504 | 68 | 171 | 0.0 | 5.0 | 0.00 | 0.00 | 0.00 | 23 | 1020.9 |
| 20260508170004 | 67 | 194 | 0.0 | 2.0 | 0.00 | 0.00 | 0.00 | 27 | 1020.9 |
| 20260508165504 | 67 | 160 | 1.0 | 3.0 | 0.00 | 0.00 | 0.00 | 27 | 1020.9 |
| 20260508165004 | 66 | 203 | 0.0 | 0.0 | 0.00 | 0.00 | 0.00 | 30 | 1020.9 |
| 20260508164505 | 66 | 203 | 0.0 | 1.0 | 0.00 | 0.00 | 0.00 | 30 | 1020.9 |
| 20260508164004 | 66 | 225 | 1.0 | 5.0 | 0.00 | 0.00 | 0.00 | 31 | 1020.9 |
| 20260508163505 | 66 | 295 | 0.0 | 3.0 | 0.00 | 0.00 | 0.00 | 33 | 1021.0 |
| 20260508163005 | 65 | 296 | 0.0 | 0.0 | 0.00 | 0.00 | 0.00 | 33 | 1021.0 |
| 20260508162504 | 65 | 296 | 0.0 | 1.0 | 0.00 | 0.00 | 0.00 | 33 | 1021.0 |
| 20260508162004 | 65 | 299 | 0.0 | 0.0 | 0.00 | 0.00 | 0.00 | 31 | 1021.0 |
| 20260508161504 | 64 | 299 | 0.0 | 0.0 | 0.00 | 0.00 | 0.00 | 31 | 1021.1 |
| 20260508161004 | 64 | 299 | 0.0 | 0.0 | 0.00 | 0.00 | 0.00 | 32 | 1021.1 |
| 20260508160505 | 64 | 299 | 0.0 | 1.0 | 0.00 | 0.00 | 0.00 | 34 | 1021.1 |
| 20260508160005 | 64 | 286 | 0.0 | 2.0 | 0.00 | 0.00 | 0.00 | 34 | 1021.1 |
| 20260508155505 | 63 | 281 | 0.0 | 0.0 | 0.00 | 0.00 | 0.00 | 33 | 1021.1 |
| 20260508155004 | 63 | 281 | 0.0 | 0.0 | 0.00 | 0.00 | 0.00 | 36 | 1021.1 |
| 20260508154504 | 62 | 281 | 0.0 | 0.0 | 0.00 | 0.00 | 0.00 | 34 | 1021.1 |
| 20260508154005 | 62 | 281 | 0.0 | 0.0 | 0.00 | 0.00 | 0.00 | 35 | 1021.2 |
| 20260508153505 | 61 | 281 | 0.0 | 0.0 | 0.00 | 0.00 | 0.00 | 36 | 1021.2 |
| 20260508153005 | 61 | 281 | 0.0 | 0.0 | 0.00 | 0.00 | 0.00 | 37 | 1021.3 |
| 20260508152504 | 60 | 281 | 0.0 | 0.0 | 0.00 | 0.00 | 0.00 | 36 | 1021.4 |
| 20260508152004 | 60 | 281 | 0.0 | 0.0 | 0.00 | 0.00 | 0.00 | 38 | 1021.4 |
| 20260508151504 | 59 | 281 | 0.0 | 0.0 | 0.00 | 0.00 | 0.00 | 41 | 1021.4 |
| 20260508151004 | 59 | 281 | 0.0 | 0.0 | 0.00 | 0.00 | 0.00 | 42 | 1021.4 |
| 20260508150005 | 58 | 340 | 0.0 | 0.0 | 0.00 | 0.00 | 0.00 | 44 | 1021.3 |
| 20260508145505 | 57 | 340 | 0.0 | 0.0 | 0.00 | 0.00 | 0.00 | 46 | 1021.2 |
| 20260508145005 | 55 | 340 | 0.0 | 0.0 | 0.00 | 0.00 | 0.00 | 47 | 1021.2 |
| 20260508144504 | 54 | 340 | 0.0 | 0.0 | 0.00 | 0.00 | 0.00 | 50 | 1021.3 |
| 20260508144004 | 53 | 340 | 0.0 | 0.0 | 0.00 | 0.00 | 0.00 | 51 | 1021.5 |
| 20260508143505 | 52 | 340 | 0.0 | 3.0 | 0.00 | 0.00 | 0.00 | 56 | 1021.5 |
| 20260508143005 | 51 | 347 | 0.0 | 0.0 | 0.00 | 0.00 | 0.00 | 58 | 1021.6 |
| 20260508142504 | 50 | 347 | 0.0 | 0.0 | 0.00 | 0.00 | 0.00 | 62 | 1021.6 |
| 20260508142005 | 49 | 347 | 1.0 | 6.0 | 0.00 | 0.00 | 0.00 | 66 | 1021.6 |
| 20260508141505 | 48 | 106 | 0.0 | 0.0 | 0.00 | 0.00 | 0.00 | 68 | 1021.5 |
| 20260508141005 | 47 | 106 | 0.0 | 0.0 | 0.00 | 0.00 | 0.00 | 66 | 1021.5 |
| 20260508140505 | 46 | 106 | 0.0 | 0.0 | 0.00 | 0.00 | 0.00 | 70 | 1021.4 |
| 20260508140005 | 45 | 106 | 0.0 | 0.0 | 0.00 | 0.00 | 0.00 | 70 | 1021.4 |
| 20260508135005 | 43 | 106 | 0.0 | 0.0 | 0.00 | 0.00 | 0.00 | 72 | 1021.4 |
| 20260508134004 | 42 | 106 | 0.0 | 0.0 | 0.00 | 0.00 | 0.00 | 74 | 1021.4 |
| 20260508133505 | 41 | 106 | 0.0 | 0.0 | 0.00 | 0.00 | 0.00 | 75 | 1021.2 |
| 20260508133004 | 41 | 106 | 0.0 | 0.0 | 0.00 | 0.00 | 0.00 | 73 | 1021.2 |
| 20260508132505 | 41 | 106 | 0.0 | 0.0 | 0.00 | 0.00 | 0.00 | 74 | 1021.2 |
| 20260508132005 | 41 | 106 | 0.0 | 0.0 | 0.00 | 0.00 | 0.00 | 73 | 1021.1 |
| 20260508131504 | 40 | 106 | 0.0 | 0.0 | 0.00 | 0.00 | 0.00 | 74 | 1021.1 |
| 20260508130504 | 40 | 106 | 0.0 | 0.0 | 0.00 | 0.00 | 0.00 | 75 | 1021.0 |
| 20260508130005 | 41 | 106 | 0.0 | 0.0 | 0.00 | 0.00 | 0.00 | 74 | 1021.0 |
| 20260508125004 | 41 | 106 | 0.0 | 0.0 | 0.00 | 0.00 | 0.00 | 72 | 1021.0 |
| 20260508124504 | 41 | 106 | 0.0 | 0.0 | 0.00 | 0.00 | 0.00 | 72 | 1021.0 |
| 20260508124004 | 41 | 106 | 0.0 | 0.0 | 0.00 | 0.00 | 0.00 | 73 | 1020.9 |
| 20260508123505 | 42 | 106 | 0.0 | 0.0 | 0.00 | 0.00 | 0.00 | 73 | 1020.9 |
| 20260508123005 | 42 | 106 | 0.0 | 0.0 | 0.00 | 0.00 | 0.00 | 74 | 1020.9 |
| 20260508122505 | 42 | 106 | 0.0 | 0.0 | 0.00 | 0.00 | 0.00 | 73 | 1020.8 |
| 20260508122004 | 42 | 106 | 0.0 | 0.0 | 0.00 | 0.00 | 0.00 | 73 | 1020.8 |
| 20260508121505 | 42 | 106 | 0.0 | 0.0 | 0.00 | 0.00 | 0.00 | 74 | 1020.8 |
| 20260508121005 | 42 | 106 | 0.0 | 0.0 | 0.00 | 0.00 | 0.00 | 74 | 1020.7 |
| 20260508120005 | 43 | 106 | 0.0 | 0.0 | 0.00 | 0.00 | 0.00 | 71 | 1020.6 |
| 20260508115505 | 43 | 106 | 0.0 | 0.0 | 0.00 | 0.00 | 0.00 | 69 | 1020.5 |
| 20260508115004 | 42 | 106 | 0.0 | 2.0 | 0.00 | 0.00 | 0.00 | 72 | 1020.5 |
| 20260508114505 | 42 | 125 | 1.0 | 3.0 | 0.00 | 0.00 | 0.00 | 74 | 1020.6 |
| 20260508114005 | 42 | 124 | 0.0 | 0.0 | 0.00 | 0.00 | 0.00 | 74 | 1020.8 |
| 20260508113505 | 43 | 124 | 0.0 | 0.0 | 0.00 | 0.00 | 0.00 | 72 | 1020.6 |
| 20260508113005 | 43 | 124 | 0.0 | 0.0 | 0.00 | 0.00 | 0.00 | 72 | 1020.6 |
| 20260508112504 | 44 | 124 | 0.0 | 0.0 | 0.00 | 0.00 | 0.00 | 71 | 1020.5 |